Dewpoint
47 43 42 36 27 27 27 30 26 31 33 34 37 40 41 46 46 38 56 57 62 66 70 69 69 69 69 69 69 69 69 70 69 69 68 69 69 69 69 69 69 68 67 67 67 66 66 66 66
46 36 35 31 28 30 31 33 33 33 36 43 43 44 42 40 52 55 56 60 64 67 69 68 69 69 69 69 69 69 70 70 70 69 68 68 68 68 69 69 69 68 67 67 67 66 66 66 65
45 35 30 29 31 28 29 33 34 35 41 39 38 43 44 45 53 54 56 63 65 68 69 68 69 69 69 69 69 70 70 69 69 70 69 69 68 68 68 69 69 69 68 68 67 67 67 66 65
34 31 31 27 26 27 30 29 31 34 35 38 43 42 47 52 52 54 61 65 66 68 69 69 69 69 69 69 69 70 70 69 69 70 70 69 68 68 69 68 68 69 68 68 68 68 67 65 64
33 30 28 27 28 28 29 30 29 33 32 42 46 43 46 55 57 60 62 65 65 68 69 69 69 69 69 69 69 70 70 69 69 69 70 69 69 69 68 68 68 68 69 68 68 69 68 66 65
27 30 27 25 27 29 29 26 25 31 39 46 44 45 49 57 58 60 62 63 66 67 69 69 69 69 69 69 69 69 69 68 68 69 69 69 69 69 68 67 68 68 68 68 69 69 67 66 65
24 25 24 28 25 25 24 26 25 34 44 45 46 43 52 56 58 59 59 61 64 66 68 68 69 69 69 69 69 69 68 68 68 68 68 69 69 69 68 67 67 68 68 68 68 68 67 66 65
25 26 26 26 20 18 24 25 27 26 38 47 49 44 46 55 59 57 56 60 62 65 67 68 68 69 69 69 68 68 68 68 68 68 68 68 68 68 68 67 67 67 67 68 68 68 67 66 65
28 24 23 22 20 21 24 23 25 27 26 39 45 48 50 57 59 58 58 60 60 62 65 67 68 68 68 68 69 68 68 67 67 67 67 67 68 68 68 67 67 67 67 67 67 67 67 66 64
25 23 23 23 22 22 24 23 24 24 24 27 45 54 58 58 58 57 57 55 58 58 60 64 66 67 68 68 68 68 68 68 67 67 67 67 67 67 67 67 67 66 66 66 66 67 66 66 64
27 27 27 27 24 25 25 26 25 24 24 24 26 53 58 58 59 58 58 58 58 59 57 61 63 65 66 66 68 67 67 67 67 66 66 66 66 66 66 66 66 66 66 65 66 66 66 64 63
28 28 28 27 29 28 26 26 26 25 25 26 28 52 57 58 58 59 59 59 60 60 59 57 60 63 65 65 67 66 66 67 66 66 66 65 65 65 64 64 63 63 63 63 64 64 63 62 62
29 29 30 30 30 29 28 27 26 25 25 26 26 53 56 57 58 59 59 60 61 61 61 59 58 60 62 63 64 65 65 66 65 65 65 65 64 64 63 63 62 61 62 62 62 62 62 61 60
30 31 30 30 29 28 27 27 25 25 25 25 26 48 54 56 57 58 59 59 61 62 62 61 59 58 59 60 61 62 63 64 64 64 64 64 63 63 62 62 61 61 61 61 61 61 61 60 59
31 29 29 27 27 27 27 24 24 25 25 24 25 29 51 54 55 56 58 59 59 61 62 62 62 60 59 58 58 60 60 61 62 62 62 63 63 62 61 60 60 60 61 61 61 61 60 59 59
29 28 24 25 26 26 25 22 25 25 25 24 26 28 40 52 53 54 55 57 58 59 61 63 63 62 61 59 58 59 60 60 60 60 61 62 62 62 61 60 60 61 61 61 60 60 60 59 59
28 21 23 24 26 26 25 24 25 26 27 27 27 26 27 28 40 50 53 54 56 58 60 61 64 63 62 61 60 59 60 62 61 61 61 61 61 62 61 61 60 61 62 62 61 61 60 60 59
17 22 23 23 24 26 26 25 24 24 25 23 21 21 21 22 25 30 44 53 54 55 56 60 63 64 63 63 62 61 62 63 63 63 63 63 62 62 62 62 62 62 62 63 62 62 62 61 61
27 27 26 27 28 27 26 25 24 23 23 22 21 20 19 19 21 25 30 33 45 52 52 56 61 63 64 63 62 62 62 64 64 64 64 64 64 63 63 63 63 64 63 63 63 62 62 61 62
28 27 26 27 27 26 24 23 24 24 23 22 21 20 19 20 20 20 22 28 32 33 45 50 58 62 64 63 63 63 63 64 66 66 65 65 65 64 64 63 63 64 63 64 64 63 63 62 62
25 26 25 24 25 25 23 21 21 22 21 21 20 20 20 19 19 21 23 26 32 35 35 44 55 60 63 63 64 65 64 66 65 65 66 65 65 66 65 65 64 64 64 64 64 63 63 62 63
23 25 24 24 23 21 22 19 21 22 21 21 20 21 21 20 21 28 35 39 42 45 46 44 54 60 62 64 65 65 64 63 64 65 65 65 66 66 67 66 66 65 65 65 64 64 64 63 62
25 25 23 24 21 19 18 20 18 21 20 21 21 21 21 21 21 25 33 42 44 46 53 53 56 59 63 64 65 65 64 65 65 65 65 65 65 65 65 66 66 66 66 66 66 65 65 64 64
29 29 28 25 21 19 18 16 17 19 21 21 21 22 26 31 35 32 32 43 45 47 47 57 58 61 64 65 66 65 64 64 64 64 64 64 64 65 66 65 66 66 66 66 66 66 65 65 65
30 28 26 24 21 20 19 19 18 21 23 23 24 30 34 34 37 43 37 43 47 52 50 48 60 61 64 65 65 65 65 64 63 63 64 66 66 65 65 66 66 65 65 65 66 66 66 65 65
30 27 24 22 21 22 25 20 19 24 25 30 36 36 35 34 34 47 53 53 54 55 56 55 57 62 64 65 65 65 64 64 64 65 64 63 62 62 62 62 62 60 58 59 60 61 62 62 64
28 27 28 27 29 31 30 27 27 25 25 34 36 35 34 34 33 39 52 53 53 54 56 57 59 61 62 63 63 62 62 62 61 61 60 60 60 59 59 55 52 50 49 50 52 54 51 55 56
30 30 29 32 27 26 29 28 25 28 31 33 34 33 35 36 35 41 49 53 54 57 58 59 59 60 60 60 60 60 60 59 59 57 56 56 56 56 50 47 45 44 44 45 46 48 49 50 51
18 15 30 34 35 29 25 25 33 33 30 28 33 33 33 35 37 51 52 55 55 56 55 55 55 56 56 56 55 54 54 53 52 52 52 53 52 48 45 43 42 42 42 44 45 46 45 45 45
18 24 31 30 30 32 33 28 34 30 23 31 33 35 37 38 49 53 54 55 55 54 54 53 52 52 52 52 52 50 50 50 50 50 50 49 46 45 42 41 41 40 41 42 42 42 42 41 41
Wind_Speed
6 7 3 4 2 5 3 2 3 4 3 4 17 9 10 5 4 3 3 14 20 23 21 22 22 19 17 15 15 14 16 18 18 17 15 14 13 12 12 11 10 10 11 10 10 11 11 11 10
5 1 5 3 6 4 1 4 5 5 10 14 13 8 2 2 5 4 11 12 21 24 22 22 23 21 20 17 15 17 17 17 17 16 15 14 13 12 11 10 8 8 9 9 8 8 8 8 7
2 1 2 4 4 2 3 5 7 4 21 9 5 1 4 4 1 16 5 18 19 19 20 21 25 22 20 18 16 16 18 19 19 17 15 13 11 11 10 10 9 8 9 8 7 6 5 5 5
3 3 5 4 5 5 5 13 10 6 4 2 9 5 0 3 12 11 19 19 20 19 18 18 23 23 20 19 18 17 17 18 17 17 16 15 13 12 10 9 7 5 6 8 8 7 6 5 4
4 3 3 3 5 6 8 9 10 8 2 7 5 7 3 1 6 17 24 21 23 17 16 17 21 21 23 22 20 18 17 19 19 18 17 16 15 13 13 11 10 9 8 7 7 6 6 5 6
4 3 3 5 8 6 7 15 8 11 6 6 5 10 6 4 13 17 19 24 19 22 18 18 21 22 19 18 21 20 19 18 18 18 16 14 13 12 12 11 10 10 9 9 8 8 8 8 8
2 3 2 4 8 7 9 15 7 5 10 10 12 8 2 8 9 17 17 14 18 15 17 20 18 20 20 20 14 16 17 16 17 17 16 14 13 12 12 11 11 11 10 10 10 10 10 10 10
3 2 3 3 8 6 12 15 4 7 8 2 6 6 6 13 17 16 14 15 15 16 15 19 20 17 16 18 22 19 17 18 17 16 18 18 17 16 15 14 13 13 13 12 13 13 13 13 12
3 1 3 5 6 13 8 15 8 4 5 5 6 7 7 20 21 18 13 12 14 16 17 16 20 21 19 17 18 22 22 21 21 19 18 17 13 15 16 17 18 18 17 16 16 15 15 14 14
2 2 4 4 8 14 20 8 12 9 9 1 3 5 17 24 24 25 24 25 21 23 23 19 18 20 20 18 17 18 18 17 17 17 18 16 15 15 14 15 18 17 17 17 17 17 17 16 13
0 3 9 15 13 14 15 18 3 5 13 8 7 8 16 23 21 23 23 27 36 26 21 24 22 19 19 17 17 16 15 15 16 18 18 16 15 14 14 13 13 13 15 13 14 15 14 14 14
5 10 4 8 10 10 14 11 13 9 20 8 8 20 21 21 25 26 26 25 23 23 27 26 24 22 19 15 16 16 18 18 17 19 19 17 15 15 15 14 14 13 11 13 14 13 14 16 16
5 5 12 17 18 13 11 17 20 24 28 10 12 17 27 26 27 26 28 20 20 25 24 27 26 26 26 23 19 17 18 17 17 16 17 16 16 15 13 14 13 15 12 14 14 14 14 15 15
8 16 21 15 21 14 13 20 3 24 21 21 12 21 27 29 30 26 19 24 26 26 28 25 29 28 25 29 27 25 22 21 18 17 18 19 16 15 15 14 15 15 15 14 14 15 15 16 13
9 17 22 17 9 7 5 17 15 30 12 19 20 15 25 27 28 29 32 32 32 31 31 29 28 22 25 26 22 19 18 18 20 20 21 23 22 19 18 16 15 16 14 16 14 14 13 14 13
10 6 10 2 12 7 2 20 31 18 14 17 18 12 20 29 33 32 31 29 29 28 26 30 26 27 25 26 24 23 19 19 19 18 17 21 22 21 18 16 16 14 15 15 14 13 15 15 15
3 13 12 18 6 6 3 21 22 29 9 18 20 22 19 20 26 27 31 32 31 31 28 28 29 30 33 26 21 21 21 20 18 16 17 18 20 20 19 16 16 14 14 14 14 14 15 15 17
16 8 9 13 8 23 30 25 29 26 18 22 24 25 24 24 27 26 31 30 33 34 30 29 27 32 30 21 18 16 16 18 17 17 17 15 16 17 17 15 15 14 13 13 14 19 16 18 18
16 21 21 22 25 21 22 31 28 30 25 29 29 26 26 25 27 25 21 31 31 30 29 29 28 29 23 25 24 22 27 19 19 17 17 16 18 18 18 16 14 14 17 19 17 17 17 17 14
21 23 25 25 21 9 26 37 26 26 25 25 24 26 26 21 24 26 29 20 26 34 34 32 33 30 30 27 28 21 20 17 14 14 14 17 19 19 19 18 16 16 18 18 18 20 18 18 13
23 15 22 30 26 23 20 36 28 14 15 23 20 21 21 20 23 28 26 27 20 27 31 31 32 33 31 30 20 11 12 7 14 15 17 20 18 18 19 18 18 18 19 20 19 18 21 23 11
27 10 21 23 22 25 9 36 41 17 23 22 23 23 21 20 21 17 23 21 18 22 18 22 24 28 26 25 23 28 25 19 19 18 14 10 14 15 18 19 20 20 17 19 19 15 19 16 23
22 14 14 22 25 20 34 9 37 18 17 15 23 26 27 19 19 23 20 20 19 10 14 18 19 20 20 25 23 22 19 13 10 10 12 12 11 13 16 15 13 15 14 15 18 18 17 17 21
16 22 21 18 17 22 30 13 21 35 15 15 20 24 20 22 25 29 24 19 18 15 9 14 21 22 22 23 21 24 20 19 14 11 9 6 7 5 7 10 12 13 11 13 14 13 14 15 16
8 14 17 14 19 25 19 19 28 20 21 17 18 20 21 25 26 30 23 24 22 20 13 11 14 16 19 22 20 21 19 18 16 11 8 10 10 8 9 9 8 7 5 6 8 12 13 14 15
12 6 7 15 13 20 19 20 26 8 19 12 17 21 30 32 28 22 18 12 16 13 8 9 10 12 15 16 16 15 15 13 12 15 15 15 13 11 10 13 14 16 17 17 15 13 14 16 13
5 7 13 14 9 7 10 23 37 30 12 17 23 30 35 32 29 27 12 20 22 21 22 11 15 16 14 15 16 18 19 19 20 19 17 15 13 13 15 15 16 16 16 15 13 12 15 13 14
1 11 6 6 7 8 6 13 17 17 25 27 31 31 34 36 37 34 14 13 14 15 16 17 19 22 18 21 19 20 20 20 19 18 19 18 17 16 17 15 15 16 16 15 14 14 14 14 15
11 12 4 5 5 6 4 13 4 23 27 30 30 31 34 32 30 23 6 5 23 16 15 16 16 21 21 18 22 23 21 20 21 21 18 18 19 15 17 17 17 18 18 15 14 13 15 14 14
12 2 2 4 5 6 6 15 15 26 31 29 32 32 35 31 20 17 12 5 9 26 19 21 11 20 21 17 18 20 20 20 20 20 19 17 20 19 19 17 17 17 15 14 15 15 15 15 14
Wind_Direction
335 322 301 34 65 45 53 223 276 190 138 184 167 179 197 143 179 237 298 164 144 156 163 170 171 168 167 172 164 147 137 128 129 130 129 124 123 123 124 124 127 133 132 127 127 124 124 120 115
334 358 32 53 63 72 76 260 223 210 156 122 117 131 91 143 129 132 126 181 158 158 164 171 171 171 171 173 170 155 147 141 141 141 138 138 140 139 139 138 139 137 135 133 133 127 121 118 119
317 53 50 67 103 3 309 233 240 174 158 157 118 91 154 157 165 161 218 159 150 158 166 173 171 174 172 171 173 166 159 158 154 152 152 148 147 147 149 148 150 152 152 149 150 147 135 128 130
358 18 55 54 337 267 247 284 283 277 178 169 122 119 71 216 167 189 148 147 150 157 166 175 173 170 171 174 176 177 170 164 159 158 157 160 162 161 158 158 159 166 171 170 172 177 180 180 172
36 59 47 5 296 266 264 281 252 269 206 170 177 176 207 60 122 139 147 150 157 159 162 172 176 176 173 176 179 181 179 170 168 168 169 169 169 169 168 170 175 180 188 193 193 199 221 228 232
14 63 16 356 319 287 312 346 327 254 193 170 146 139 184 150 148 155 154 157 162 165 165 170 178 178 179 187 181 182 185 181 177 173 173 173 175 177 178 181 186 194 198 202 208 213 227 241 255
44 41 284 299 333 346 358 343 36 260 175 200 154 151 270 185 168 152 157 152 156 164 166 169 183 181 180 180 199 194 187 191 185 182 179 181 184 188 191 193 197 203 211 213 215 222 235 247 258
110 87 339 297 321 304 332 351 319 49 248 350 136 196 203 204 157 142 144 152 161 166 176 177 176 185 186 187 187 196 199 196 195 194 191 189 190 194 198 202 206 209 215 219 224 227 231 239 249
107 335 291 294 309 312 308 343 318 335 47 243 212 188 240 146 138 145 153 164 177 184 185 186 183 182 187 191 195 193 197 201 200 199 199 200 201 202 204 207 208 211 215 218 221 226 234 242 250
147 165 255 250 279 300 304 306 310 329 341 234 314 6 130 140 155 168 178 186 193 196 197 192 192 187 183 187 190 195 198 199 200 198 199 200 205 209 211 217 219 221 224 224 225 228 232 237 241
35 249 289 299 263 287 287 303 233 278 298 243 258 178 160 157 171 178 192 193 196 197 197 195 192 193 189 194 186 194 199 198 200 203 203 203 203 209 216 221 226 226 231 231 233 236 235 235 238
288 267 264 296 310 310 287 303 293 223 268 233 243 186 173 179 183 191 197 205 199 201 202 199 192 188 195 193 197 196 195 199 201 204 202 198 205 209 214 216 222 225 227 231 231 235 237 238 239
243 312 308 296 295 278 272 279 277 286 282 260 236 184 188 193 200 201 204 202 200 210 211 206 195 195 190 192 193 200 204 206 206 203 204 200 205 212 213 221 218 220 218 226 234 237 244 245 245
311 307 302 301 297 290 282 289 203 274 272 281 213 210 202 199 206 210 202 208 205 207 213 211 207 198 194 196 195 197 198 200 202 203 204 204 208 210 212 218 222 226 218 219 224 231 236 246 247
303 311 311 297 300 298 287 296 272 273 298 281 281 233 216 212 212 211 208 210 211 209 211 208 207 206 201 202 203 206 207 208 208 208 202 202 204 207 210 215 221 223 217 222 222 231 233 245 248
315 295 297 333 324 311 206 305 313 319 304 283 292 292 225 217 216 219 220 216 216 218 205 209 203 203 208 207 202 201 203 202 213 213 209 209 207 208 210 215 221 217 210 216 222 227 236 242 245
290 268 278 305 285 338 347 307 296 310 332 301 296 297 283 251 239 236 228 222 221 219 212 208 201 203 207 209 206 206 203 204 211 210 210 209 210 209 210 216 223 210 210 214 220 226 225 238 241
260 256 266 280 289 313 305 291 290 295 305 303 300 296 293 281 275 240 227 228 228 223 218 212 203 208 205 198 202 204 210 209 204 206 213 209 207 210 211 219 220 209 210 218 217 230 225 233 241
261 271 274 278 284 304 282 282 283 294 299 296 294 286 287 283 280 279 243 228 220 229 228 216 208 210 192 193 195 200 211 209 209 207 208 203 202 203 209 219 223 214 222 224 219 230 235 242 231
255 263 276 282 276 266 297 295 288 282 282 274 275 286 287 289 291 294 283 254 212 216 219 219 212 205 197 198 204 206 208 209 204 205 201 202 204 206 210 215 223 217 227 231 228 229 245 252 219
268 258 268 268 286 280 292 291 296 283 273 286 280 271 282 287 300 302 293 267 227 212 210 210 209 204 201 200 190 176 169 151 187 198 203 206 204 204 205 210 218 223 222 233 228 226 232 255 245
277 279 278 278 288 280 278 285 290 297 281 271 274 292 290 306 313 313 302 276 233 228 218 209 206 201 201 189 186 188 193 198 208 207 212 205 200 204 208 211 214 222 225 234 234 229 227 233 260
276 289 281 295 291 290 283 237 289 295 290 284 290 285 293 308 310 301 286 270 278 218 209 202 194 188 183 186 189 188 194 193 163 170 191 210 215 224 231 227 230 234 235 241 244 244 232 228 244
277 292 289 270 267 273 272 259 260 279 277 279 280 286 345 342 335 305 276 250 252 262 198 191 188 185 175 178 181 184 183 171 159 169 197 223 258 261 267 254 243 245 245 249 255 255 250 245 241
344 289 285 275 268 270 284 293 259 275 295 298 317 359 343 343 343 325 293 242 224 233 209 195 196 184 175 176 173 178 175 173 178 171 170 145 109 86 60 58 47 36 12 346 311 285 275 265 257
296 271 264 300 280 285 299 268 269 300 318 18 6 348 351 349 344 337 7 356 355 297 190 164 174 170 162 160 157 147 144 137 132 118 108 103 104 92 73 68 57 45 35 29 15 14 5 351 328
315 229 260 255 275 281 261 274 281 277 279 4 11 2 345 339 336 338 24 31 21 8 343 91 104 108 115 118 119 111 107 106 106 99 96 94 91 80 70 64 62 50 43 35 32 27 14 4 4
258 317 354 353 235 240 263 282 268 351 12 9 360 350 336 333 334 333 302 92 54 46 18 4 80 90 90 91 92 91 90 91 94 93 89 82 75 75 71 63 58 50 43 33 32 29 16 19 15
340 324 317 215 225 281 272 273 37 26 13 359 355 356 342 328 332 332 24 98 120 83 59 41 35 80 81 86 100 97 94 94 91 87 83 83 78 74 68 58 52 46 38 30 33 30 27 26 19
259 335 56 262 296 295 262 257 64 17 355 10 357 356 342 340 345 357 4 91 101 119 116 97 68 77 70 63 80 88 91 88 88 85 81 83 78 66 62 58 54 47 41 40 39 33 29 28 25